Location: Lawrence
(38.9720°N, 95.2350°W)
Time: 23:52:13
(UTC-05:00)

Amateur Radio Satellites - All Passes

Search period start: 30 October 2014 23:22
Search period end: 31 October 2014 23:22
Location: Lawrence, 38.9720°N, 95.2350°W

Satellite Date Start Highest point End Downlink Frequencies (MHz)
Time Altitude Azimuth
UOSAT-12 30 Oct 23:25:17 23:29:33 35° 246° (WSW) 23:33:44 437.025 FM, 437.400 FM
FUNcube-1 30 Oct 23:32:00 23:36:08 34° 263° (W) 23:40:14 145.950 - 145.970 MHz USB
RS-15 30 Oct 23:36:16 23:46:28 43° 315° (NW) 23:56:45 29.354 - 29.394 USB, Beacon 29.352 USB
PCSat 31 Oct 01:44:53 01:48:10 17° 104° (ESE) 01:51:28 145.825 MHz
RS-15 31 Oct 01:56:05 02:02:58 18° 348° (NNW) 02:09:57 29.354 - 29.394 USB, Beacon 29.352 USB
Oscar 19 31 Oct 02:06:13 02:10:24 25° 95° (E) 02:14:34 437.125 CW, 437.150 USB
AO-27 31 Oct 02:41:21 02:45:21 22° 94° (E) 02:49:19 436.795 MHz FM
JAS-1B 31 Oct 02:47:41 02:54:52 64° 102° (ESE) 03:03:26 435.800 - 435.900 CW/SSB
Oscar 16 31 Oct 02:52:30 02:57:38 74° 102° (ESE) 03:02:44 437.025 USB, Beacon 2401.1428
Gurwin Techsat 1B 31 Oct 02:54:33 02:57:36 15° 91° (E) 03:00:39 435.225 FM
TMSAT-1 31 Oct 03:01:54 03:04:13 13° 90° (E) 03:06:31 436.925 FM
Sapphire 31 Oct 03:03:50 03:09:14 80° 116° (ESE) 03:14:40 437.095 MHz 1200 baud AX-25 AFSK
Uribyol 2 31 Oct 03:24:32 03:29:41 61° 101° (ESE) 03:34:47 436.500 FM
PCSat 31 Oct 03:25:39 03:31:00 63° 300° (WNW) 03:36:24 145.825 MHz
AO-Echo 31 Oct 03:31:34 03:36:56 89° 283° (WNW) 03:42:12 ?
ITAMSAT 1 31 Oct 03:32:20 03:37:32 68° 102° (ESE) 03:42:42 435.822 SSB
Oscar 19 31 Oct 03:45:08 03:49:47 36° 291° (WNW) 03:54:25 437.125 CW, 437.150 USB
AO-7 31 Oct 04:02:31 04:06:48 15° 90° (E) 04:11:04 29.400 - 29.500 MHz
RS-15 31 Oct 04:13:02 04:21:15 23° 25° (NNE) 04:29:39 29.354 - 29.394 USB, Beacon 29.352 USB
AO-27 31 Oct 04:20:06 04:25:00 42° 290° (WNW) 04:29:53 436.795 MHz FM
Gurwin Techsat 1B 31 Oct 04:32:43 04:37:58 62° 287° (WNW) 04:43:11 435.225 FM
Oscar 16 31 Oct 04:33:55 04:36:20 14° 299° (WNW) 04:38:45 437.025 USB, Beacon 2401.1428
TMSAT-1 31 Oct 04:39:20 04:44:38 72° 286° (WNW) 04:49:54 436.925 FM
JAS-1B 31 Oct 04:39:26 04:45:05 26° 296° (WNW) 04:51:32 435.800 - 435.900 CW/SSB
Sapphire 31 Oct 04:49:52 04:53:18 17° 315° (NW) 04:56:45 437.095 MHz 1200 baud AX-25 AFSK
OPAL 31 Oct 04:55:08 04:59:30 29° 66° (ENE) 05:03:50 ?
Uribyol 2 31 Oct 05:05:27 05:08:37 17° 298° (WNW) 05:11:47 436.500 FM
AO-Echo 31 Oct 05:13:06 05:14:51 12° 300° (WNW) 05:16:36 ?
ITAMSAT 1 31 Oct 05:13:33 05:16:25 15° 299° (WNW) 05:19:18 435.822 SSB
PCSat 31 Oct 05:14:04 05:15:32 11° 321° (NW) 05:17:00 145.825 MHz
Uosat F 31 Oct 05:22:50 05:27:35 40° 99° (E) 05:32:18 435.120 FM
JAS-2 31 Oct 05:43:11 05:49:39 27° 92° (E) 05:55:53 435.800 - 435.900 CW/SSB, 435.910 FM
Saudisat 1A 31 Oct 05:43:32 05:47:13 27° 113° (ESE) 05:50:57 436.775 MHz
PANSAT 31 Oct 05:48:50 05:51:16 16° 175° (S) 05:53:43 not established
AO-7 31 Oct 05:52:16 06:00:39 83° 107° (ESE) 06:09:00 29.400 - 29.500 MHz
RS-15 31 Oct 06:25:19 06:36:26 64° 53° (NE) 06:47:58 29.354 - 29.394 USB, Beacon 29.352 USB
OPAL 31 Oct 06:33:44 06:38:16 32° 261° (W) 06:42:47 ?
Hamsat 31 Oct 06:49:12 06:53:16 46° 99° (E) 06:57:21 145.90 MHz
STRAND 1 31 Oct 06:50:19 06:55:07 42° 70° (ENE) 06:59:57 ?
Uosat F 31 Oct 07:02:13 07:06:06 23° 295° (WNW) 07:09:57 435.120 FM
Saudisat 1A 31 Oct 07:22:49 07:26:41 30° 310° (NW) 07:30:35 436.775 MHz
JAS-2 31 Oct 07:27:17 07:35:01 62° 289° (WNW) 07:42:29 435.800 - 435.900 CW/SSB, 435.910 FM
PANSAT 31 Oct 07:28:28 07:30:46 15° 188° (S) 07:33:04 not established
AO-7 31 Oct 07:46:30 07:52:28 23° 306° (NW) 07:58:27 29.400 - 29.500 MHz
SO-67 31 Oct 07:53:31 07:56:31 27° 96° (E) 07:59:30 435.3500 MHz FM
Hamsat 31 Oct 08:26:31 08:28:49 15° 294° (WNW) 08:31:08 145.90 MHz
STRAND 1 31 Oct 08:30:32 08:34:27 22° 266° (W) 08:38:23 ?
RS-15 31 Oct 08:38:23 08:48:11 37° 254° (WSW) 08:58:24 29.354 - 29.394 USB, Beacon 29.352 USB
HO-68 31 Oct 08:41:22 08:43:10 11° 88° (E) 08:44:57 435.675 MHz FM
MaSat-1 31 Oct 08:48:59 08:51:13 31° 250° (WSW) 08:53:20 437.345 MHz
JAS-2 31 Oct 09:15:27 09:18:27 13° 307° (NW) 09:21:27 435.800 - 435.900 CW/SSB, 435.910 FM
SO-67 31 Oct 09:27:14 09:29:14 15° 291° (WNW) 09:31:14 435.3500 MHz FM
ISS 31 Oct 09:38:22 09:40:28 16° 130° (SE) 09:42:34 145.800 FM
KITSAT 1 31 Oct 09:44:26 09:48:25 15° 100° (E) 09:52:23 435.175 FM
HO-68 31 Oct 10:24:41 10:31:54 76° 105° (ESE) 10:39:04 435.675 MHz FM
UKube-1 31 Oct 10:30:40 10:34:34 31° 97° (E) 10:38:25 145.840 MHz, 145.915 MHz
PCSat 31 Oct 10:33:14 10:35:53 14° 42° (NE) 10:38:30 145.825 MHz
ZACube-1 31 Oct 10:40:21 10:42:50 15° 92° (E) 10:45:19 437.345 MHz
Oscar 11 31 Oct 11:05:27 11:09:46 79° 102° (ESE) 11:14:05 145.825 FM, Beacon 2401.500 USB
SO-50 31 Oct 11:10:55 11:14:57 34° 114° (ESE) 11:19:07 436.795 FM
ISS 31 Oct 11:13:37 11:16:51 50° 325° (NW) 11:20:07 145.800 FM
FUNcube-1 31 Oct 11:22:00 11:26:03 47° 99° (E) 11:30:03 145.950 - 145.970 MHz USB
KITSAT 1 31 Oct 11:34:29 11:42:33 82° 117° (ESE) 11:50:40 435.175 FM
Sapphire 31 Oct 11:53:07 11:58:24 49° 57° (ENE) 12:03:38 437.095 MHz 1200 baud AX-25 AFSK
UKube-1 31 Oct 12:07:11 12:10:33 22° 293° (WNW) 12:13:55 145.840 MHz, 145.915 MHz
HO-68 31 Oct 12:13:47 12:18:51 21° 302° (WNW) 12:23:54 435.675 MHz FM
PCSat 31 Oct 12:14:43 12:20:11 80° 62° (ENE) 12:25:35 145.825 MHz
ZACube-1 31 Oct 12:15:31 12:19:25 38° 288° (WNW) 12:23:15 437.345 MHz
Oscar 16 31 Oct 12:33:11 12:34:48 11° 60° (ENE) 12:36:25 437.025 USB, Beacon 2401.1428
SO-50 31 Oct 12:51:44 12:55:33 26° 312° (NW) 12:59:28 436.795 FM
ISS 31 Oct 12:52:29 12:54:10 13° 344° (NNW) 12:55:52 145.800 FM
FUNcube-1 31 Oct 12:59:54 13:02:00 14° 295° (WNW) 13:04:06 145.950 - 145.970 MHz USB
Uribyol 2 31 Oct 13:07:32 13:07:44 10° 58° (ENE) 13:07:56 436.500 FM
AO-Echo 31 Oct 13:08:08 13:10:07 12° 60° (ENE) 13:12:08 ?
ITAMSAT 1 31 Oct 13:14:03 13:15:37 11° 59° (ENE) 13:17:10 435.822 SSB
Oscar 19 31 Oct 13:21:54 13:26:27 33° 69° (ENE) 13:31:00 437.125 CW, 437.150 USB
KITSAT 1 31 Oct 13:32:25 13:38:52 26° 318° (NW) 13:45:22 435.175 FM
JAS-1B 31 Oct 13:33:58 13:39:18 41° 69° (ENE) 13:44:36 435.800 - 435.900 CW/SSB
UOSAT-12 31 Oct 13:34:31 13:39:09 88° 301° (WNW) 13:43:53 437.025 FM, 437.400 FM
Sapphire 31 Oct 13:37:22 13:41:26 22° 254° (WSW) 13:45:30 437.095 MHz 1200 baud AX-25 AFSK
AO-27 31 Oct 13:58:13 14:02:44 31° 68° (ENE) 14:07:15 436.795 MHz FM
PCSat 31 Oct 14:00:41 14:02:50 12° 258° (WSW) 14:04:58 145.825 MHz
Oscar 16 31 Oct 14:08:13 14:13:23 87° 256° (WSW) 14:18:33 437.025 USB, Beacon 2401.1428
Saudisat 1A 31 Oct 14:11:15 14:14:24 19° 45° (NE) 14:17:33 436.775 MHz
Gurwin Techsat 1B 31 Oct 14:14:14 14:18:18 23° 65° (ENE) 14:22:22 435.225 FM
TMSAT-1 31 Oct 14:21:02 14:24:44 20° 64° (ENE) 14:28:26 436.925 FM
Uribyol 2 31 Oct 14:41:06 14:46:19 81° 75° (ENE) 14:51:35 436.500 FM
AO-Echo 31 Oct 14:43:09 14:48:06 80° 257° (WSW) 14:53:17 ?
ITAMSAT 1 31 Oct 14:49:04 14:54:18 90° 75° (ENE) 14:59:34 435.822 SSB
AO-7 31 Oct 15:00:15 15:06:07 22° 54° (NE) 15:12:00 29.400 - 29.500 MHz
Oscar 19 31 Oct 15:01:24 15:05:46 28° 264° (W) 15:10:08 437.125 CW, 437.150 USB
UOSAT-12 31 Oct 15:17:41 15:20:00 13° 320° (NW) 15:22:19 437.025 FM, 437.400 FM
JAS-1B 31 Oct 15:25:44 15:30:13 23° 266° (W) 15:34:39 435.800 - 435.900 CW/SSB
AO-27 31 Oct 15:37:33 15:42:09 31° 263° (W) 15:46:47 436.795 MHz FM
Saudisat 1A 31 Oct 15:49:57 15:54:15 51° 243° (WSW) 15:58:31 436.775 MHz
Gurwin Techsat 1B 31 Oct 15:52:55 15:57:57 44° 261° (W) 16:03:01 435.225 FM
TMSAT-1 31 Oct 15:59:04 16:04:13 52° 260° (W) 16:09:25 436.925 FM
ISS 31 Oct 16:07:11 16:09:47 21° 25° (NNE) 16:12:24 145.800 FM
Uribyol 2 31 Oct 16:25:04 16:26:22 11° 271° (W) 16:27:41 436.500 FM
Uosat F 31 Oct 16:34:50 16:39:40 50° 72° (ENE) 16:44:32 435.120 FM
AO-7 31 Oct 16:49:39 16:57:56 84° 253° (WSW) 17:06:16 29.400 - 29.500 MHz
KITSAT 1 31 Oct 17:36:31 17:38:13 11° 20° (NNE) 17:39:55 435.175 FM
JAS-2 31 Oct 17:37:22 17:43:27 56° 70° (ENE) 17:50:22 435.800 - 435.900 CW/SSB, 435.910 FM
Hamsat 31 Oct 17:41:37 17:45:11 28° 70° (ENE) 17:48:46 145.90 MHz
ISS 31 Oct 17:43:25 17:46:43 58° 222° (SW) 17:49:59 145.800 FM
Uosat F 31 Oct 18:15:23 18:18:42 18° 267° (W) 18:22:02 435.120 FM
OPAL 31 Oct 18:44:04 18:49:02 73° 105° (ESE) 18:53:57 ?
AO-7 31 Oct 18:47:30 18:51:46 15° 270° (W) 18:56:04 29.400 - 29.500 MHz
STRAND 1 31 Oct 19:03:28 19:06:27 15° 92° (E) 19:09:24 ?
Hamsat 31 Oct 19:17:53 19:21:07 22° 266° (W) 19:24:21 145.90 MHz
JAS-2 31 Oct 19:24:07 19:28:59 24° 270° (W) 19:34:22 435.800 - 435.900 CW/SSB, 435.910 FM
KITSAT 1 31 Oct 19:29:24 19:36:37 34° 47° (NE) 19:43:47 435.175 FM
SO-50 31 Oct 19:43:22 19:47:29 27° 48° (NE) 19:51:38 436.795 FM
SO-67 31 Oct 19:57:03 20:00:24 53° 260° (W) 20:03:47 435.3500 MHz FM
OPAL 31 Oct 20:24:58 20:27:17 13° 301° (WNW) 20:29:36 ?
STRAND 1 31 Oct 20:40:56 20:46:00 59° 287° (WNW) 20:51:01 ?
RS-15 31 Oct 20:47:56 20:58:02 44° 109° (ESE) 21:08:01 29.354 - 29.394 USB, Beacon 29.352 USB
HO-68 31 Oct 20:51:41 20:58:31 50° 67° (ENE) 21:05:24 435.675 MHz FM
SO-50 31 Oct 21:23:38 21:28:09 39° 245° (WSW) 21:32:40 436.795 FM
KITSAT 1 31 Oct 21:24:31 21:32:23 58° 247° (WSW) 21:40:13 435.175 FM
UKube-1 31 Oct 21:25:15 21:28:45 24° 68° (ENE) 21:32:16 145.840 MHz, 145.915 MHz
ZACube-1 31 Oct 21:36:30 21:38:35 13° 64° (ENE) 21:40:39 437.345 MHz
Oscar 11 31 Oct 21:59:08 22:03:19 52° 74° (ENE) 22:07:30 145.825 FM, Beacon 2401.500 USB
UOSAT-12 31 Oct 22:05:22 22:10:01 56° 55° (NE) 22:14:35 437.025 FM, 437.400 FM
FUNcube-1 31 Oct 22:16:57 22:21:03 35° 71° (ENE) 22:25:05 145.950 - 145.970 MHz USB
MaSat-1 31 Oct 22:21:43 22:25:36 56° 112° (ESE) 22:29:06 437.345 MHz
HO-68 31 Oct 22:40:20 22:46:25 30° 264° (W) 22:52:33 435.675 MHz FM
RS-15 31 Oct 22:59:28 23:10:06 53° 310° (NW) 23:20:46 29.354 - 29.394 USB, Beacon 29.352 USB
UKube-1 31 Oct 23:01:03 23:04:48 28° 263° (W) 23:08:35 145.840 MHz, 145.915 MHz
ZACube-1 31 Oct 23:10:00 23:14:29 60° 259° (W) 23:18:54 437.345 MHz
